Previsão horária em Cerkove

Hoje, 25 Julho, Domingo

Tempo Temperatura Precipitação Vento Pressão Humidade
00:00 +21°C° 0 mm 1 m/s 750 mmHg 68%
01:00 +21°C° 0 mm 1 m/s 750 mmHg 69%
02:00 +20°C° 0 mm 1 m/s 751 mmHg 71%
03:00 +20°C° 0 mm 1 m/s 751 mmHg 72%
04:00 +20°C° 0 mm 1 m/s 751 mmHg 73%
05:00 +18°C° 0 mm 0 m/s 751 mmHg 73%
06:00 +19°C° 0 mm 0 m/s 751 mmHg 70%
07:00 +20°C° 0 mm 0 m/s 751 mmHg 67%
08:00 +22°C° 0 mm 0 m/s 751 mmHg 63%
09:00 +25°C° 0 mm 1 m/s 751 mmHg 58%
10:00 +26°C° 0 mm 1 m/s 752 mmHg 52%
11:00 +28°C° 0 mm 1 m/s 752 mmHg 47%
12:00 +27°C° 0 mm 1 m/s 752 mmHg 50%
13:00 +26°C° 0 mm 2 m/s 752 mmHg 54%
14:00 +25°C° 0 mm 2 m/s 752 mmHg 57%
15:00 +25°C° 0 mm 2 m/s 752 mmHg 58%
16:00 +25°C° 0 mm 2 m/s 751 mmHg 58%
17:00 +25°C° 0 mm 1 m/s 751 mmHg 59%
18:00 +24°C° 0 mm 1 m/s 752 mmHg 62%
19:00 +23°C° 0 mm 2 m/s 752 mmHg 66%
20:00 +21°C° 0 mm 2 m/s 752 mmHg 69%
21:00 +20°C° 0 mm 2 m/s 752 mmHg 71%
22:00 +21°C° 0 mm 1 m/s 752 mmHg 72%
23:00 +20°C° 0 mm 1 m/s 752 mmHg 74%

Amanhã, 26 Julho, Segunda-feira

Tempo Temperatura Precipitação Vento Pressão Humidade
00:00 +18°C° 0 mm 2 m/s 752 mmHg 76%
01:00 +18°C° 0 mm 2 m/s 752 mmHg 78%
02:00 +17°C° 0 mm 2 m/s 752 mmHg 80%
03:00 +17°C° 0 mm 2 m/s 752 mmHg 81%
04:00 +17°C° 0 mm 2 m/s 753 mmHg 82%
05:00 +17°C° 0 mm 2 m/s 753 mmHg 83%
06:00 +19°C° 0 mm 2 m/s 753 mmHg 74%
07:00 +21°C° 0 mm 2 m/s 753 mmHg 66%
08:00 +25°C° 0 mm 2 m/s 753 mmHg 57%
09:00 +26°C° 0 mm 3 m/s 753 mmHg 51%
10:00 +28°C° 0 mm 3 m/s 753 mmHg 45%
11:00 +30°C° 0 mm 3 m/s 753 mmHg 39%
12:00 +30°C° 0 mm 3 m/s 753 mmHg 37%
13:00 +30°C° 0 mm 3 m/s 752 mmHg 36%
14:00 +30°C° 0 mm 3 m/s 752 mmHg 35%
15:00 +30°C° 0 mm 3 m/s 752 mmHg 36%
16:00 +30°C° 0 mm 4 m/s 752 mmHg 38%
17:00 +30°C° 0 mm 4 m/s 752 mmHg 39%
18:00 +28°C° 0 mm 3 m/s 752 mmHg 46%
19:00 +26°C° 0 mm 3 m/s 752 mmHg 53%
20:00 +24°C° 0 mm 2 m/s 752 mmHg 61%
21:00 +23°C° 0 mm 2 m/s 752 mmHg 62%
22:00 +23°C° 0 mm 2 m/s 752 mmHg 64%
23:00 +21°C° 0 mm 2 m/s 752 mmHg 65%

Depois de amanhã, 27 Julho, Terça-feira

Tempo Temperatura Precipitação Vento Pressão Humidade
00:00 +21°C° 0 mm 2 m/s 752 mmHg 67%
01:00 +21°C° 0 mm 3 m/s 752 mmHg 68%
02:00 +20°C° 0 mm 3 m/s 752 mmHg 69%
03:00 +20°C° 0 mm 3 m/s 752 mmHg 71%
04:00 +20°C° 0 mm 3 m/s 752 mmHg 72%
05:00 +19°C° 0 mm 3 m/s 752 mmHg 74%
06:00 +21°C° 0 mm 4 m/s 751 mmHg 67%
07:00 +23°C° 0 mm 4 m/s 751 mmHg 60%
08:00 +26°C° 0 mm 5 m/s 751 mmHg 53%
09:00 +28°C° 0 mm 5 m/s 751 mmHg 48%
10:00 +29°C° 0 mm 5 m/s 751 mmHg 43%
11:00 +32°C° 0 mm 6 m/s 751 mmHg 38%
12:00 +30°C° 0 mm 5 m/s 751 mmHg 41%
13:00 +30°C° 0 mm 5 m/s 750 mmHg 43%
14:00 +29°C° 0 mm 4 m/s 750 mmHg 45%
15:00 +29°C° 0.1 mm 4 m/s 750 mmHg 50%
16:00 +28°C° 0.1 mm 4 m/s 749 mmHg 55%
17:00 +28°C° 0.1 mm 4 m/s 749 mmHg 59%
18:00 +26°C° 2.9 mm 4 m/s 749 mmHg 71%
19:00 +23°C° 2.9 mm 4 m/s 749 mmHg 83%
20:00 +21°C° 2.9 mm 4 m/s 749 mmHg 94%
21:00 +21°C° 1 mm 4 m/s 748 mmHg 95%
22:00 +21°C° 1 mm 4 m/s 748 mmHg 96%
23:00 +20°C° 1 mm 3 m/s 748 mmHg 97%

28 Julho, Quarta-feira

Tempo Temperatura Precipitação Vento Pressão Humidade
00:00 +20°C° 0.4 mm 3 m/s 748 mmHg 97%
01:00 +20°C° 0.4 mm 3 m/s 748 mmHg 97%
02:00 +21°C° 0.4 mm 3 m/s 748 mmHg 98%
03:00 +20°C° 0.1 mm 3 m/s 748 mmHg 97%
04:00 +20°C° 0.1 mm 2 m/s 747 mmHg 97%
05:00 +20°C° 0.1 mm 2 m/s 747 mmHg 97%
06:00 +21°C° 0.2 mm 2 m/s 747 mmHg 95%
07:00 +21°C° 0.2 mm 2 m/s 747 mmHg 93%
08:00 +23°C° 0.2 mm 2 m/s 747 mmHg 91%
09:00 +25°C° 0 mm 1 m/s 747 mmHg 82%
10:00 +26°C° 0 mm 1 m/s 747 mmHg 73%
11:00 +28°C° 0 mm 1 m/s 747 mmHg 64%
12:00 +29°C° 0.2 mm 1 m/s 746 mmHg 62%
13:00 +29°C° 0.2 mm 1 m/s 746 mmHg 60%
14:00 +30°C° 0.2 mm 1 m/s 746 mmHg 58%
15:00 +29°C° 0.7 mm 1 m/s 746 mmHg 61%
16:00 +29°C° 0.7 mm 1 m/s 746 mmHg 64%
17:00 +28°C° 0.7 mm 1 m/s 746 mmHg 68%
18:00 +27°C° 0.2 mm 1 m/s 746 mmHg 73%
19:00 +26°C° 0.2 mm 1 m/s 745 mmHg 77%
20:00 +24°C° 0.2 mm 1 m/s 745 mmHg 82%
21:00 +23°C° 1.3 mm 1 m/s 745 mmHg 86%
22:00 +23°C° 1.3 mm 1 m/s 745 mmHg 90%
23:00 +21°C° 1.3 mm 2 m/s 745 mmHg 94%

29 Julho, Quinta-feira

Tempo Temperatura Precipitação Vento Pressão Humidade
00:00 +20°C° 1.3 mm 2 m/s 745 mmHg 95%
01:00 +20°C° 1.3 mm 3 m/s 745 mmHg 96%
02:00 +19°C° 1.3 mm 3 m/s 745 mmHg 97%
03:00 +19°C° 0.3 mm 3 m/s 746 mmHg 97%
04:00 +19°C° 0.3 mm 3 m/s 746 mmHg 97%
05:00 +19°C° 0.3 mm 4 m/s 746 mmHg 96%
06:00 +19°C° 0 mm 4 m/s 746 mmHg 94%
07:00 +20°C° 0 mm 4 m/s 747 mmHg 92%
08:00 +20°C° 0 mm 4 m/s 747 mmHg 90%
09:00 +22°C° 0 mm 4 m/s 747 mmHg 81%
10:00 +23°C° 0 mm 4 m/s 747 mmHg 71%
11:00 +25°C° 0 mm 4 m/s 748 mmHg 62%
12:00 +26°C° 0 mm 4 m/s 748 mmHg 55%
13:00 +28°C° 0 mm 5 m/s 747 mmHg 49%
14:00 +29°C° 0 mm 5 m/s 747 mmHg 43%
15:00 +28°C° 0 mm 4 m/s 747 mmHg 47%
16:00 +27°C° 0 mm 4 m/s 747 mmHg 50%
17:00 +26°C° 0 mm 4 m/s 747 mmHg 54%
18:00 +25°C° 0 mm 3 m/s 747 mmHg 58%
19:00 +24°C° 0 mm 2 m/s 748 mmHg 61%
20:00 +23°C° 0 mm 2 m/s 748 mmHg 65%
21:00 +21°C° 0 mm 2 m/s 748 mmHg 68%
22:00 +20°C° 0 mm 2 m/s 748 mmHg 72%
23:00 +20°C° 0 mm 2 m/s 748 mmHg 75%

30 Julho, Sexta-feira

Tempo Temperatura Precipitação Vento Pressão Humidade
00:00 +19°C° 0 mm 2 m/s 748 mmHg 78%
01:00 +18°C° 0 mm 2 m/s 748 mmHg 80%
02:00 +18°C° 0 mm 2 m/s 748 mmHg 83%
03:00 +17°C° 0 mm 2 m/s 748 mmHg 84%
04:00 +18°C° 0 mm 1 m/s 748 mmHg 85%
05:00 +18°C° 0 mm 1 m/s 748 mmHg 86%
06:00 +20°C° 0 mm 1 m/s 749 mmHg 78%
07:00 +22°C° 0 mm 1 m/s 749 mmHg 70%
08:00 +24°C° 0 mm 1 m/s 749 mmHg 62%
09:00 +26°C° 0 mm 1 m/s 749 mmHg 54%
10:00 +27°C° 0 mm 2 m/s 749 mmHg 46%
11:00 +29°C° 0 mm 2 m/s 748 mmHg 38%
12:00 +30°C° 0 mm 2 m/s 748 mmHg 37%
13:00 +30°C° 0 mm 3 m/s 748 mmHg 36%
14:00 +31°C° 0 mm 3 m/s 748 mmHg 35%
15:00 +31°C° 0 mm 3 m/s 748 mmHg 39%
16:00 +30°C° 0 mm 2 m/s 748 mmHg 43%
17:00 +30°C° 0 mm 2 m/s 748 mmHg 47%
18:00 +28°C° 0 mm 2 m/s 747 mmHg 52%
19:00 +26°C° 0 mm 2 m/s 747 mmHg 57%
20:00 +24°C° 0 mm 2 m/s 747 mmHg 62%
21:00 +24°C° 0 mm 2 m/s 747 mmHg 65%
22:00 +23°C° 0 mm 2 m/s 747 mmHg 67%
23:00 +21°C° 0 mm 2 m/s 747 mmHg 69%
Mostrar mais

Necessitamos do seu Consentimento

A Meteoprog e os seus Fornecedores de Serviços podem armazenar e aceder a dados pessoais como cookies, identificadores do dispositivo ou outras tecnologias semelhantes existentes no seu dispositivo e processar estes dados para personalizar conteúdos e anúncios, assim como funcionalidades nas redes sociais e análise de tráfego.

  • Armazenar e/ou aceder a informações no seu dispositivo

    Os cookies, identificadores do dispositivo ou outras informações podem ser armazenados ou acedidos no seu dispositivo, para os fins acima indicados.

  • Anúncios e conteúdos personalizados, medição de anúncios e conteúdos, dados sobre o público-alvo e desenvolvimento de produtos

    Os anúncios e os conteúdos podem ser personalizados com base num perfil. Podem ser adicionados dados adicionais para uma maior personalização dos anúncios e dos conteúdos. A eficácia dos anúncios e dos conteúdos pode ser medida. Podem ser obtidas informações sobre o público que visualizou os anúncios e os conteúdos. Estes dados podem ser usados para desenvolver ou melhorar sistemas, softwares ou a experiência do utilizador.

Ao clicar em "Eu concordo”, permitirá o uso de cookies, identificadores do dispositivo e web beacons mencionados ou outras tecnologias semelhantes. As configurações do navegador do seu dispositivo podem ser alteradas.

Para certos fins, podem ser invocados interesses legítimos ao invés de consentimento. Pode ler mais informação sobre este assunto na nossa Política de Privacidade e Cookies.